Time,TemperatureF,DewpointF,PressureIn,WindDirection,WindDirectionDegrees,WindSpeedMPH,WindSpeedGustMPH,Humidity,HourlyPrecipIn,Conditions,Clouds,dailyrainin,SoftwareType,DateUTC
2013-10-10 00:03:00,35.8,29.6,29.93,North,0,0.0,0.0,78,0.00,,,0.00,WUHU216HW,2013-10-10 07:03:00,
2013-10-10 00:08:00,35.6,29.4,29.93,North,0,0.0,0.0,78,0.00,,,0.00,WUHU216HW,2013-10-10 07:08:00,
2013-10-10 00:13:00,35.6,29.4,29.94,North,0,0.0,0.0,78,0.00,,,0.00,WUHU216HW,2013-10-10 07:13:00,
2013-10-10 00:18:00,35.5,29.5,29.93,North,0,0.0,0.0,79,0.00,,,0.00,WUHU216HW,2013-10-10 07:18:00,
2013-10-10 00:23:00,35.5,29.5,29.93,North,0,0.0,0.0,79,0.00,,,0.00,WUHU216HW,2013-10-10 07:23:00,
2013-10-10 00:28:00,35.6,29.4,29.93,North,0,0.0,0.0,78,0.00,,,0.00,WUHU216HW,2013-10-10 07:28:00,
2013-10-10 00:33:00,35.6,29.4,29.93,North,0,0.0,0.0,78,0.00,,,0.00,WUHU216HW,2013-10-10 07:33:00,
2013-10-10 00:38:00,35.6,29.4,29.93,North,0,0.0,0.0,78,0.00,,,0.00,WUHU216HW,2013-10-10 07:38:00,
2013-10-10 00:43:00,35.6,29.4,29.93,North,0,0.0,0.0,78,0.00,,,0.00,WUHU216HW,2013-10-10 07:43:00,
2013-10-10 00:48:00,35.6,29.4,29.93,North,0,0.0,0.0,78,0.00,,,0.00,WUHU216HW,2013-10-10 07:48:00,
2013-10-10 00:53:00,35.3,29.1,29.93,North,0,0.0,0.0,78,0.00,,,0.00,WUHU216HW,2013-10-10 07:53:00,
2013-10-10 00:58:00,35.5,29.3,29.93,North,0,0.0,0.0,78,0.00,,,0.00,WUHU216HW,2013-10-10 07:58:00,
2013-10-10 01:03:00,35.3,29.3,29.94,North,0,0.0,0.0,79,0.00,,,0.00,WUHU216HW,2013-10-10 08:03:00,
2013-10-10 01:08:00,35.3,29.1,29.94,North,0,0.0,0.0,78,0.00,,,0.00,WUHU216HW,2013-10-10 08:08:00,
2013-10-10 01:13:00,35.3,29.3,29.94,North,0,0.0,0.0,79,0.00,,,0.00,WUHU216HW,2013-10-10 08:13:00,
2013-10-10 01:18:00,35.3,29.3,29.94,North,0,0.0,0.0,79,0.00,,,0.00,WUHU216HW,2013-10-10 08:18:00,
2013-10-10 01:23:00,35.3,29.3,29.93,North,0,0.0,0.0,79,0.00,,,0.00,WUHU216HW,2013-10-10 08:23:00,
2013-10-10 01:28:00,35.5,29.5,29.93,North,0,0.0,0.0,79,0.00,,,0.00,WUHU216HW,2013-10-10 08:28:00,
2013-10-10 01:33:00,35.5,29.5,29.93,North,0,0.0,0.0,79,0.00,,,0.00,WUHU216HW,2013-10-10 08:33:00,
2013-10-10 01:38:00,35.5,29.5,29.92,North,0,0.0,0.0,79,0.00,,,0.00,WUHU216HW,2013-10-10 08:38:00,
2013-10-10 01:43:00,35.5,29.5,29.92,North,0,0.0,0.0,79,0.00,,,0.00,WUHU216HW,2013-10-10 08:43:00,
2013-10-10 01:48:00,35.5,29.5,29.92,North,0,0.0,0.0,79,0.00,,,0.00,WUHU216HW,2013-10-10 08:48:00,
2013-10-10 01:53:00,35.6,29.7,29.92,North,0,0.0,0.0,79,0.00,,,0.00,WUHU216HW,2013-10-10 08:53:00,
2013-10-10 01:58:00,35.6,29.4,29.92,North,0,0.0,0.0,78,0.00,,,0.00,WUHU216HW,2013-10-10 08:58:00,
2013-10-10 02:04:00,35.6,29.7,29.92,North,0,0.0,0.0,79,0.00,,,0.00,WUHU216HW,2013-10-10 09:04:00,
2013-10-10 02:09:00,35.6,29.7,29.92,North,0,0.0,0.0,79,0.00,,,0.00,WUHU216HW,2013-10-10 09:09:00,
2013-10-10 02:14:00,35.6,29.7,29.92,North,0,0.0,0.0,79,0.00,,,0.00,WUHU216HW,2013-10-10 09:14:00,
2013-10-10 02:19:00,35.6,29.7,29.91,North,0,0.0,0.0,79,0.00,,,0.00,WUHU216HW,2013-10-10 09:19:00,
2013-10-10 02:24:00,35.6,29.7,29.91,North,0,0.0,0.0,79,0.00,,,0.00,WUHU216HW,2013-10-10 09:24:00,
2013-10-10 02:29:00,35.6,29.7,29.91,North,0,0.0,0.0,79,0.00,,,0.00,WUHU216HW,2013-10-10 09:29:00,
2013-10-10 02:34:00,35.8,29.9,29.90,North,0,0.0,0.0,79,0.00,,,0.00,WUHU216HW,2013-10-10 09:34:00,
2013-10-10 02:39:00,35.8,29.9,29.90,North,0,0.0,0.0,79,0.00,,,0.00,WUHU216HW,2013-10-10 09:39:00,
2013-10-10 02:44:00,35.8,29.6,29.90,North,0,0.0,0.0,78,0.00,,,0.00,WUHU216HW,2013-10-10 09:44:00,
2013-10-10 02:49:00,35.8,29.6,29.90,North,0,0.0,0.0,78,0.00,,,0.00,WUHU216HW,2013-10-10 09:49:00,
2013-10-10 02:54:00,35.6,29.4,29.90,North,0,0.0,0.0,78,0.00,,,0.00,WUHU216HW,2013-10-10 09:54:00,
2013-10-10 02:59:00,35.6,29.4,29.90,North,0,0.0,0.0,78,0.00,,,0.00,WUHU216HW,2013-10-10 09:59:00,
2013-10-10 03:04:00,35.5,29.5,29.90,North,0,0.0,0.0,79,0.00,,,0.00,WUHU216HW,2013-10-10 10:04:00,
2013-10-10 03:09:00,35.5,29.5,29.90,North,0,0.0,0.0,79,0.00,,,0.00,WUHU216HW,2013-10-10 10:09:00,
2013-10-10 03:14:00,35.5,29.5,29.90,North,0,0.0,0.0,79,0.00,,,0.00,WUHU216HW,2013-10-10 10:14:00,
2013-10-10 03:19:00,35.3,29.3,29.89,North,0,0.0,0.0,79,0.00,,,0.00,WUHU216HW,2013-10-10 10:19:00,
2013-10-10 03:24:00,35.3,29.3,29.90,North,0,0.0,0.0,79,0.00,,,0.00,WUHU216HW,2013-10-10 10:24:00,
2013-10-10 03:29:00,35.3,29.3,29.89,North,0,0.0,0.0,79,0.00,,,0.00,WUHU216HW,2013-10-10 10:29:00,
2013-10-10 03:34:00,35.3,29.3,29.89,North,0,0.0,0.0,79,0.00,,,0.00,WUHU216HW,2013-10-10 10:34:00,
2013-10-10 03:39:00,35.3,29.3,29.89,North,0,0.0,0.0,79,0.00,,,0.00,WUHU216HW,2013-10-10 10:39:00,
2013-10-10 03:44:00,35.5,29.5,29.89,North,0,0.0,0.0,79,0.00,,,0.00,WUHU216HW,2013-10-10 10:44:00,
2013-10-10 03:49:00,35.5,29.5,29.89,North,0,0.0,0.0,79,0.00,,,0.00,WUHU216HW,2013-10-10 10:49:00,
2013-10-10 03:54:00,35.6,29.7,29.89,North,0,0.0,0.0,79,0.00,,,0.00,WUHU216HW,2013-10-10 10:54:00,
2013-10-10 03:59:00,35.6,29.7,29.89,North,0,0.0,0.0,79,0.00,,,0.00,WUHU216HW,2013-10-10 10:59:00,
2013-10-10 04:04:00,35.6,29.7,29.89,North,0,0.0,0.0,79,0.00,,,0.00,WUHU216HW,2013-10-10 11:04:00,
2013-10-10 04:10:00,35.8,29.9,29.89,North,0,0.0,0.0,79,0.00,,,0.00,WUHU216HW,2013-10-10 11:10:00,
2013-10-10 04:15:00,35.6,29.7,29.89,North,0,0.0,0.0,79,0.00,,,0.00,WUHU216HW,2013-10-10 11:15:00,
2013-10-10 04:20:00,35.8,29.9,29.90,North,0,0.0,0.0,79,0.00,,,0.00,WUHU216HW,2013-10-10 11:20:00,
2013-10-10 04:25:00,35.8,29.9,29.90,North,0,0.0,0.0,79,0.00,,,0.00,WUHU216HW,2013-10-10 11:25:00,
2013-10-10 04:30:00,35.8,29.9,29.90,North,0,0.0,0.0,79,0.00,,,0.00,WUHU216HW,2013-10-10 11:30:00,
2013-10-10 04:35:00,35.8,29.9,29.90,North,0,0.0,0.0,79,0.00,,,0.00,WUHU216HW,2013-10-10 11:35:00,
2013-10-10 04:40:00,35.6,29.7,29.90,North,0,0.0,0.0,79,0.00,,,0.00,WUHU216HW,2013-10-10 11:40:00,
2013-10-10 04:45:00,35.8,29.9,29.90,North,0,0.0,0.0,79,0.00,,,0.00,WUHU216HW,2013-10-10 11:45:00,
2013-10-10 04:50:00,36.0,30.1,29.90,North,0,0.0,0.0,79,0.00,,,0.00,WUHU216HW,2013-10-10 11:50:00,
2013-10-10 04:55:00,36.0,30.1,29.90,North,0,0.0,0.0,79,0.00,,,0.00,WUHU216HW,2013-10-10 11:55:00,
2013-10-10 05:00:00,36.0,30.1,29.89,North,0,0.0,0.0,79,0.00,,,0.00,WUHU216HW,2013-10-10 12:00:00,
2013-10-10 05:05:00,36.0,30.1,29.89,North,0,0.0,0.0,79,0.00,,,0.00,WUHU216HW,2013-10-10 12:05:00,
2013-10-10 05:10:00,35.8,29.9,29.90,North,0,0.0,0.0,79,0.00,,,0.00,WUHU216HW,2013-10-10 12:10:00,
2013-10-10 05:15:00,35.6,29.7,29.90,North,0,0.0,0.0,79,0.00,,,0.00,WUHU216HW,2013-10-10 12:15:00,
2013-10-10 05:20:00,35.6,29.7,29.89,North,0,0.0,0.0,79,0.00,,,0.00,WUHU216HW,2013-10-10 12:20:00,
2013-10-10 05:25:00,35.3,29.3,29.90,North,0,0.0,0.0,79,0.00,,,0.00,WUHU216HW,2013-10-10 12:25:00,
2013-10-10 05:30:00,35.3,29.3,29.90,North,0,0.0,0.0,79,0.00,,,0.00,WUHU216HW,2013-10-10 12:30:00,
2013-10-10 05:35:00,35.3,29.3,29.90,North,0,0.0,0.0,79,0.00,,,0.00,WUHU216HW,2013-10-10 12:35:00,
2013-10-10 05:40:00,35.1,29.2,29.90,North,0,0.0,0.0,79,0.00,,,0.00,WUHU216HW,2013-10-10 12:40:00,
2013-10-10 05:45:00,34.9,29.0,29.89,North,0,0.0,0.0,79,0.00,,,0.00,WUHU216HW,2013-10-10 12:45:00,
2013-10-10 05:50:00,34.7,29.2,29.90,North,0,0.0,0.0,80,0.00,,,0.00,WUHU216HW,2013-10-10 12:50:00,
2013-10-10 05:55:00,34.6,29.0,29.90,North,0,0.0,0.0,80,0.00,,,0.00,WUHU216HW,2013-10-10 12:55:00,
2013-10-10 06:00:00,34.6,29.0,29.90,North,0,0.0,0.0,80,0.00,,,0.00,WUHU216HW,2013-10-10 13:00:00,
2013-10-10 06:05:00,34.4,28.8,29.90,North,0,0.0,0.0,80,0.00,,,0.00,WUHU216HW,2013-10-10 13:05:00,
2013-10-10 06:10:00,34.2,28.6,29.90,North,0,0.0,0.0,80,0.00,,,0.00,WUHU216HW,2013-10-10 13:10:00,
2013-10-10 06:15:00,34.0,28.4,29.90,North,0,0.0,0.0,80,0.00,,,0.00,WUHU216HW,2013-10-10 13:15:00,
2013-10-10 06:20:00,34.0,28.7,29.90,North,0,0.0,0.0,81,0.00,,,0.00,WUHU216HW,2013-10-10 13:20:00,
2013-10-10 06:25:00,33.8,28.5,29.90,North,0,0.0,0.0,81,0.00,,,0.00,WUHU216HW,2013-10-10 13:25:00,
2013-10-10 06:30:00,33.8,28.8,29.90,North,0,0.0,0.0,82,0.00,,,0.00,WUHU216HW,2013-10-10 13:30:00,
2013-10-10 06:36:00,33.8,28.5,29.90,North,0,0.0,0.0,81,0.00,,,0.00,WUHU216HW,2013-10-10 13:36:00,
2013-10-10 06:41:00,33.7,28.4,29.90,North,0,0.0,0.0,81,0.00,,,0.00,WUHU216HW,2013-10-10 13:41:00,
2013-10-10 06:46:00,33.7,28.4,29.90,North,0,0.0,0.0,81,0.00,,,0.00,WUHU216HW,2013-10-10 13:46:00,
2013-10-10 06:51:00,33.7,28.4,29.90,North,0,0.0,0.0,81,0.00,,,0.00,WUHU216HW,2013-10-10 13:51:00,
2013-10-10 06:56:00,33.5,28.3,29.90,North,0,0.0,0.0,81,0.00,,,0.00,WUHU216HW,2013-10-10 13:56:00,
2013-10-10 07:01:00,33.5,28.5,29.90,North,0,0.0,0.0,82,0.00,,,0.00,WUHU216HW,2013-10-10 14:01:00,
2013-10-10 07:06:00,33.5,28.3,29.90,North,0,0.0,0.0,81,0.00,,,0.00,WUHU216HW,2013-10-10 14:06:00,
2013-10-10 07:11:00,33.5,28.3,29.90,North,0,0.0,0.0,81,0.00,,,0.00,WUHU216HW,2013-10-10 14:11:00,
2013-10-10 07:16:00,33.7,28.4,29.91,North,0,0.0,0.0,81,0.00,,,0.00,WUHU216HW,2013-10-10 14:16:00,
2013-10-10 07:21:00,33.7,28.4,29.91,North,0,0.0,0.0,81,0.00,,,0.00,WUHU216HW,2013-10-10 14:21:00,
2013-10-10 07:26:00,33.5,28.3,29.90,North,0,0.0,0.0,81,0.00,,,0.00,WUHU216HW,2013-10-10 14:26:00,
2013-10-10 07:31:00,33.7,28.4,29.90,North,0,0.0,0.0,81,0.00,,,0.00,WUHU216HW,2013-10-10 14:31:00,
2013-10-10 07:36:00,33.5,27.9,29.90,North,0,0.0,0.0,80,0.00,,,0.00,WUHU216HW,2013-10-10 14:36:00,
2013-10-10 07:41:00,33.5,27.9,29.90,North,0,0.0,0.0,80,0.00,,,0.00,WUHU216HW,2013-10-10 14:41:00,
2013-10-10 07:46:00,33.5,28.3,29.90,North,0,0.0,0.0,81,0.00,,,0.00,WUHU216HW,2013-10-10 14:46:00,
2013-10-10 07:51:00,33.5,28.3,29.90,North,0,0.0,0.0,81,0.00,,,0.00,WUHU216HW,2013-10-10 14:51:00,
2013-10-10 07:56:00,33.5,28.3,29.91,North,0,0.0,0.0,81,0.00,,,0.00,WUHU216HW,2013-10-10 14:56:00,
2013-10-10 08:01:00,33.5,28.3,29.91,North,0,0.0,0.0,81,0.00,,,0.00,WUHU216HW,2013-10-10 15:01:00,
2013-10-10 08:06:00,33.5,28.3,29.91,North,0,0.0,0.0,81,0.00,,,0.00,WUHU216HW,2013-10-10 15:06:00,
2013-10-10 08:11:00,33.5,28.3,29.91,North,0,0.0,0.0,81,0.00,,,0.00,WUHU216HW,2013-10-10 15:11:00,
2013-10-10 08:16:00,33.5,28.3,29.91,North,0,0.0,0.0,81,0.00,,,0.00,WUHU216HW,2013-10-10 15:16:00,
2013-10-10 08:21:00,33.5,28.3,29.91,North,0,0.0,0.0,81,0.00,,,0.00,WUHU216HW,2013-10-10 15:21:00,
2013-10-10 08:26:00,33.7,28.4,29.91,North,0,0.0,0.0,81,0.00,,,0.00,WUHU216HW,2013-10-10 15:26:00,
2013-10-10 08:31:00,33.8,28.5,29.92,North,0,0.0,0.0,81,0.00,,,0.00,WUHU216HW,2013-10-10 15:31:00,
2013-10-10 08:36:00,34.2,28.9,29.92,North,0,0.0,0.0,81,0.00,,,0.00,WUHU216HW,2013-10-10 15:36:00,
2013-10-10 08:41:00,34.6,29.3,29.92,North,0,0.0,0.0,81,0.00,,,0.00,WUHU216HW,2013-10-10 15:41:00,
2013-10-10 08:47:00,34.9,29.6,29.93,North,0,0.0,0.0,81,0.00,,,0.00,WUHU216HW,2013-10-10 15:47:00,
2013-10-10 08:52:00,35.1,29.8,29.93,North,0,0.0,0.0,81,0.00,,,0.00,WUHU216HW,2013-10-10 15:52:00,
2013-10-10 08:57:00,35.5,30.2,29.93,North,0,0.0,0.0,81,0.00,,,0.00,WUHU216HW,2013-10-10 15:57:00,
2013-10-10 09:02:00,36.0,30.4,29.93,North,0,0.0,0.0,80,0.00,,,0.00,WUHU216HW,2013-10-10 16:02:00,
2013-10-10 09:07:00,36.4,30.8,29.94,North,0,0.0,0.0,80,0.00,,,0.00,WUHU216HW,2013-10-10 16:07:00,
2013-10-10 09:12:00,37.1,31.5,29.94,North,0,0.0,0.0,80,0.00,,,0.00,WUHU216HW,2013-10-10 16:12:00,
2013-10-10 09:17:00,37.4,31.5,29.94,North,0,0.0,0.0,79,0.00,,,0.00,WUHU216HW,2013-10-10 16:17:00,
2013-10-10 09:22:00,37.8,31.9,29.94,North,0,0.0,0.0,79,0.00,,,0.00,WUHU216HW,2013-10-10 16:22:00,
2013-10-10 09:27:00,38.2,32.0,29.94,North,0,0.0,0.0,78,0.00,,,0.00,WUHU216HW,2013-10-10 16:27:00,
2013-10-10 09:32:00,38.7,32.8,29.94,North,0,0.0,0.0,79,0.00,,,0.00,WUHU216HW,2013-10-10 16:32:00,
2013-10-10 09:37:00,39.1,32.8,29.94,North,0,0.0,0.0,78,0.00,,,0.00,WUHU216HW,2013-10-10 16:37:00,
2013-10-10 09:42:00,39.4,33.1,29.94,North,0,0.0,0.0,78,0.00,,,0.00,WUHU216HW,2013-10-10 16:42:00,
2013-10-10 09:47:00,39.6,32.9,29.94,North,0,0.0,0.0,77,0.00,,,0.00,WUHU216HW,2013-10-10 16:47:00,
2013-10-10 09:52:00,40.1,33.1,29.94,North,0,0.0,0.0,76,0.00,,,0.00,WUHU216HW,2013-10-10 16:52:00,
2013-10-10 09:57:00,40.3,33.3,29.94,North,0,0.0,0.0,76,0.00,,,0.00,WUHU216HW,2013-10-10 16:57:00,
2013-10-10 10:02:00,40.7,33.3,29.94,North,0,0.0,0.0,75,0.00,,,0.00,WUHU216HW,2013-10-10 17:02:00,
2013-10-10 10:07:00,41.4,33.7,29.94,North,0,0.0,0.0,74,0.00,,,0.00,WUHU216HW,2013-10-10 17:07:00,
2013-10-10 10:12:00,41.6,33.6,29.94,North,0,0.0,0.0,73,0.00,,,0.00,WUHU216HW,2013-10-10 17:12:00,
2013-10-10 10:17:00,42.1,33.8,29.94,North,0,0.0,0.0,72,0.00,,,0.00,WUHU216HW,2013-10-10 17:17:00,
2013-10-10 10:22:00,42.5,33.5,29.94,North,0,0.0,0.0,70,0.00,,,0.00,WUHU216HW,2013-10-10 17:22:00,
2013-10-10 10:27:00,42.8,33.0,29.94,North,0,0.0,0.0,68,0.00,,,0.00,WUHU216HW,2013-10-10 17:27:00,
2013-10-10 10:32:00,43.0,32.9,29.94,North,0,0.0,0.0,67,0.00,,,0.00,WUHU216HW,2013-10-10 17:32:00,
2013-10-10 10:37:00,43.2,33.4,29.94,North,0,0.0,0.0,68,0.00,,,0.00,WUHU216HW,2013-10-10 17:37:00,
2013-10-10 10:42:00,43.6,33.8,29.94,North,0,0.0,0.0,68,0.00,,,0.00,WUHU216HW,2013-10-10 17:42:00,
2013-10-10 10:47:00,43.9,33.7,29.94,North,0,0.0,0.0,67,0.00,,,0.00,WUHU216HW,2013-10-10 17:47:00,
2013-10-10 10:53:00,44.3,34.0,29.94,North,0,0.0,0.0,67,0.00,,,0.00,WUHU216HW,2013-10-10 17:53:00,
2013-10-10 10:58:00,44.3,34.0,29.94,North,0,0.0,0.0,67,0.00,,,0.00,WUHU216HW,2013-10-10 17:58:00,
2013-10-10 11:03:00,45.0,33.6,29.94,North,0,0.0,0.0,64,0.00,,,0.00,WUHU216HW,2013-10-10 18:03:00,
2013-10-10 11:08:00,45.2,33.7,29.94,North,0,0.0,0.0,64,0.00,,,0.00,WUHU216HW,2013-10-10 18:08:00,
2013-10-10 11:13:00,45.4,33.8,29.94,North,0,0.0,0.0,64,0.00,,,0.00,WUHU216HW,2013-10-10 18:13:00,
2013-10-10 11:18:00,45.7,33.9,29.93,North,0,0.0,0.0,63,0.00,,,0.00,WUHU216HW,2013-10-10 18:18:00,
2013-10-10 11:23:00,45.9,34.0,29.94,North,0,0.0,0.0,63,0.00,,,0.00,WUHU216HW,2013-10-10 18:23:00,
2013-10-10 11:28:00,46.3,34.3,29.94,North,0,0.0,0.0,63,0.00,,,0.00,WUHU216HW,2013-10-10 18:28:00,
2013-10-10 11:33:00,46.4,34.1,29.94,North,0,0.0,0.0,62,0.00,,,0.00,WUHU216HW,2013-10-10 18:33:00,
2013-10-10 11:38:00,46.6,33.5,29.94,North,0,0.0,0.0,60,0.00,,,0.00,WUHU216HW,2013-10-10 18:38:00,
2013-10-10 11:43:00,46.8,33.7,29.94,North,0,0.0,0.0,60,0.00,,,0.00,WUHU216HW,2013-10-10 18:43:00,
2013-10-10 11:48:00,47.0,33.8,29.94,North,0,0.0,0.0,60,0.00,,,0.00,WUHU216HW,2013-10-10 18:48:00,
2013-10-10 11:53:00,47.3,34.6,29.94,North,0,0.0,0.0,61,0.00,,,0.00,WUHU216HW,2013-10-10 18:53:00,
2013-10-10 11:58:00,47.5,34.7,29.94,North,0,0.0,0.0,61,0.00,,,0.00,WUHU216HW,2013-10-10 18:58:00,
2013-10-10 12:03:00,47.7,34.9,29.94,North,0,0.0,0.0,61,0.00,,,0.00,WUHU216HW,2013-10-10 19:03:00,
2013-10-10 12:08:00,47.9,34.7,29.94,North,0,0.0,0.0,60,0.00,,,0.00,WUHU216HW,2013-10-10 19:08:00,
2013-10-10 12:13:00,48.2,35.1,29.94,North,0,0.0,0.0,60,0.00,,,0.00,WUHU216HW,2013-10-10 19:13:00,
2013-10-10 12:18:00,48.6,34.9,29.94,North,0,0.0,0.0,59,0.00,,,0.00,WUHU216HW,2013-10-10 19:18:00,
2013-10-10 12:23:00,49.0,33.5,29.94,North,0,0.0,0.0,55,0.00,,,0.00,WUHU216HW,2013-10-10 19:23:00,
2013-10-10 12:28:00,49.3,34.8,29.94,North,0,0.0,0.0,57,0.00,,,0.00,WUHU216HW,2013-10-10 19:28:00,
2013-10-10 12:33:00,49.7,34.6,29.94,North,0,0.0,0.0,56,0.00,,,0.00,WUHU216HW,2013-10-10 19:33:00,
2013-10-10 12:38:00,49.9,33.8,29.94,North,0,0.0,0.0,54,0.00,,,0.00,WUHU216HW,2013-10-10 19:38:00,
2013-10-10 12:43:00,50.0,34.0,29.94,North,0,0.0,0.0,54,0.00,,,0.00,WUHU216HW,2013-10-10 19:43:00,
2013-10-10 12:48:00,50.6,34.0,29.94,North,0,0.0,0.0,53,0.00,,,0.00,WUHU216HW,2013-10-10 19:48:00,
2013-10-10 12:53:00,50.8,34.2,29.94,North,0,0.0,0.0,53,0.00,,,0.00,WUHU216HW,2013-10-10 19:53:00,
2013-10-10 12:58:00,50.9,31.3,29.94,North,0,0.0,0.0,47,0.00,,,0.00,WUHU216HW,2013-10-10 19:58:00,
2013-10-10 13:03:00,51.1,33.2,29.94,North,0,0.0,0.0,50,0.00,,,0.00,WUHU216HW,2013-10-10 20:03:00,
2013-10-10 13:08:00,51.3,33.4,29.93,North,0,0.0,0.0,50,0.00,,,0.00,WUHU216HW,2013-10-10 20:08:00,
2013-10-10 13:14:00,51.8,34.3,29.93,North,0,0.0,0.0,51,0.00,,,0.00,WUHU216HW,2013-10-10 20:14:00,
2013-10-10 13:19:00,52.2,34.7,29.93,North,0,0.0,0.0,51,0.00,,,0.00,WUHU216HW,2013-10-10 20:19:00,
2013-10-10 13:24:00,52.2,34.7,29.93,North,0,0.0,0.0,51,0.00,,,0.00,WUHU216HW,2013-10-10 20:24:00,
2013-10-10 13:29:00,52.6,33.9,29.93,North,0,0.0,0.0,49,0.00,,,0.00,WUHU216HW,2013-10-10 20:29:00,
2013-10-10 13:31:00,52.6,34.5,29.93,North,0,0.0,0.0,50,0.00,,,0.00,WUHU216HW,2013-10-10 20:31:00,
2013-10-10 13:36:00,52.4,34.3,29.93,North,0,0.0,0.0,50,0.00,,,0.00,WUHU216HW,2013-10-10 20:36:00,
2013-10-10 13:41:00,52.9,34.3,29.93,North,0,0.0,0.0,49,0.00,,,0.00,WUHU216HW,2013-10-10 20:41:00,
2013-10-10 13:46:00,52.9,33.7,29.93,North,0,0.0,0.0,48,0.00,,,0.00,WUHU216HW,2013-10-10 20:46:00,
2013-10-10 13:51:00,52.9,34.3,29.93,North,0,0.0,0.0,49,0.00,,,0.00,WUHU216HW,2013-10-10 20:51:00,
2013-10-10 13:56:00,53.5,33.7,29.93,North,0,0.0,0.0,47,0.00,,,0.00,WUHU216HW,2013-10-10 20:56:00,
2013-10-10 14:01:00,53.6,33.8,29.93,North,0,0.0,0.0,47,0.00,,,0.00,WUHU216HW,2013-10-10 21:01:00,
2013-10-10 14:06:00,53.6,33.8,29.93,North,0,0.0,0.0,47,0.00,,,0.00,WUHU216HW,2013-10-10 21:06:00,
2013-10-10 14:11:00,53.6,34.4,29.93,North,0,0.0,0.0,48,0.00,,,0.00,WUHU216HW,2013-10-10 21:11:00,
2013-10-10 14:16:00,53.5,34.2,29.93,North,0,0.0,0.0,48,0.00,,,0.00,WUHU216HW,2013-10-10 21:16:00,
2013-10-10 14:21:00,53.5,33.0,29.93,North,0,0.0,0.0,46,0.00,,,0.00,WUHU216HW,2013-10-10 21:21:00,
2013-10-10 14:26:00,53.6,33.8,29.93,North,0,0.0,0.0,47,0.00,,,0.00,WUHU216HW,2013-10-10 21:26:00,
2013-10-10 14:31:00,53.6,33.2,29.93,North,0,0.0,0.0,46,0.00,,,0.00,WUHU216HW,2013-10-10 21:31:00,
2013-10-10 14:36:00,53.5,34.7,29.93,North,0,0.0,0.0,49,0.00,,,0.00,WUHU216HW,2013-10-10 21:36:00,
2013-10-10 14:41:00,53.8,34.5,29.93,North,0,0.0,0.0,48,0.00,,,0.00,WUHU216HW,2013-10-10 21:41:00,
2013-10-10 14:46:00,54.0,34.7,29.93,North,0,0.0,0.0,48,0.00,,,0.00,WUHU216HW,2013-10-10 21:46:00,
2013-10-10 14:51:00,54.2,34.8,29.93,North,0,0.0,0.0,48,0.00,,,0.00,WUHU216HW,2013-10-10 21:51:00,
2013-10-10 14:56:00,54.4,35.0,29.93,North,0,0.0,0.0,48,0.00,,,0.00,WUHU216HW,2013-10-10 21:56:00,
2013-10-10 15:01:00,54.4,33.8,29.93,North,0,0.0,0.0,46,0.00,,,0.00,WUHU216HW,2013-10-10 22:01:00,
2013-10-10 15:06:00,54.4,35.0,29.93,North,0,0.0,0.0,48,0.00,,,0.00,WUHU216HW,2013-10-10 22:06:00,
2013-10-10 15:11:00,54.0,34.7,29.94,North,0,0.0,0.0,48,0.00,,,0.00,WUHU216HW,2013-10-10 22:11:00,
2013-10-10 15:16:00,53.5,33.7,29.94,North,0,0.0,0.0,47,0.00,,,0.00,WUHU216HW,2013-10-10 22:16:00,
2013-10-10 15:22:00,53.1,33.3,29.94,North,0,0.0,0.0,47,0.00,,,0.00,WUHU216HW,2013-10-10 22:22:00,
2013-10-10 15:27:00,53.1,33.3,29.94,North,0,0.0,0.0,47,0.00,,,0.00,WUHU216HW,2013-10-10 22:27:00,
2013-10-10 15:32:00,53.3,34.0,29.94,North,0,0.0,0.0,48,0.00,,,0.00,WUHU216HW,2013-10-10 22:32:00,
2013-10-10 15:37:00,52.9,33.1,29.94,North,0,0.0,0.0,47,0.00,,,0.00,WUHU216HW,2013-10-10 22:37:00,
2013-10-10 15:42:00,52.7,34.1,29.95,North,0,0.0,0.0,49,0.00,,,0.00,WUHU216HW,2013-10-10 22:42:00,
2013-10-10 15:47:00,52.9,34.3,29.95,North,0,0.0,0.0,49,0.00,,,0.00,WUHU216HW,2013-10-10 22:47:00,
2013-10-10 15:52:00,52.9,33.7,29.95,North,0,0.0,0.0,48,0.00,,,0.00,WUHU216HW,2013-10-10 22:52:00,
2013-10-10 15:57:00,52.2,33.0,29.95,North,0,0.0,0.0,48,0.00,,,0.00,WUHU216HW,2013-10-10 22:57:00,
2013-10-10 16:02:00,52.2,33.0,29.95,North,0,0.0,0.0,48,0.00,,,0.00,WUHU216HW,2013-10-10 23:02:00,
2013-10-10 16:07:00,52.2,32.5,29.95,North,0,0.0,0.0,47,0.00,,,0.00,WUHU216HW,2013-10-10 23:07:00,
2013-10-10 16:12:00,52.0,32.9,29.95,North,0,0.0,0.0,48,0.00,,,0.00,WUHU216HW,2013-10-10 23:12:00,
2013-10-10 16:17:00,51.7,32.6,29.95,North,0,0.0,0.0,48,0.00,,,0.00,WUHU216HW,2013-10-10 23:17:00,
2013-10-10 16:22:00,51.5,32.4,29.95,North,0,0.0,0.0,48,0.00,,,0.00,WUHU216HW,2013-10-10 23:22:00,
2013-10-10 16:27:00,51.1,32.0,29.95,North,0,0.0,0.0,48,0.00,,,0.00,WUHU216HW,2013-10-10 23:27:00,
2013-10-10 16:32:00,50.9,32.0,29.95,North,0,0.0,0.0,48,0.00,,,0.00,WUHU216HW,2013-10-10 23:32:00,
2013-10-10 16:37:00,50.8,31.8,29.96,North,0,0.0,0.0,48,0.00,,,0.00,WUHU216HW,2013-10-10 23:37:00,
2013-10-10 16:42:00,50.6,32.1,29.96,North,0,0.0,0.0,49,0.00,,,0.00,WUHU216HW,2013-10-10 23:42:00,
2013-10-10 16:47:00,50.6,32.1,29.96,North,0,0.0,0.0,49,0.00,,,0.00,WUHU216HW,2013-10-10 23:47:00,
2013-10-10 16:52:00,50.6,31.6,29.96,North,0,0.0,0.0,48,0.00,,,0.00,WUHU216HW,2013-10-10 23:52:00,
2013-10-10 16:57:00,50.6,32.7,29.96,North,0,0.0,0.0,50,0.00,,,0.00,WUHU216HW,2013-10-10 23:57:00,
2013-10-10 17:02:00,50.6,32.1,29.96,North,0,0.0,0.0,49,0.00,,,0.00,WUHU216HW,2013-10-11 00:02:00,
2013-10-10 17:07:00,50.4,32.6,29.96,North,0,0.0,0.0,50,0.00,,,0.00,WUHU216HW,2013-10-11 00:07:00,
2013-10-10 17:12:00,50.4,32.6,29.96,North,0,0.0,0.0,50,0.00,,,0.00,WUHU216HW,2013-10-11 00:12:00,
2013-10-10 17:17:00,50.4,32.6,29.96,North,0,0.0,0.0,50,0.00,,,0.00,WUHU216HW,2013-10-11 00:17:00,
2013-10-10 17:22:00,50.4,32.6,29.96,North,0,0.0,0.0,50,0.00,,,0.00,WUHU216HW,2013-10-11 00:22:00,
2013-10-10 17:27:00,50.0,31.7,29.96,North,0,0.0,0.0,49,0.00,,,0.00,WUHU216HW,2013-10-11 00:27:00,
2013-10-10 17:32:00,49.7,31.9,29.96,North,0,0.0,0.0,50,0.00,,,0.00,WUHU216HW,2013-10-11 00:32:00,
2013-10-10 17:38:00,49.5,32.1,29.96,North,0,0.0,0.0,51,0.00,,,0.00,WUHU216HW,2013-10-11 00:38:00,
2013-10-10 17:43:00,49.3,32.0,29.96,North,0,0.0,0.0,51,0.00,,,0.00,WUHU216HW,2013-10-11 00:43:00,
2013-10-10 17:48:00,49.3,32.4,29.97,North,0,0.0,0.0,52,0.00,,,0.00,WUHU216HW,2013-10-11 00:48:00,
2013-10-10 17:53:00,48.8,31.9,29.97,North,0,0.0,0.0,52,0.00,,,0.00,WUHU216HW,2013-10-11 00:53:00,
2013-10-10 17:58:00,48.4,31.5,29.97,North,0,0.0,0.0,52,0.00,,,0.00,WUHU216HW,2013-10-11 00:58:00,
2013-10-10 18:03:00,48.1,31.7,29.97,North,0,0.0,0.0,53,0.00,,,0.00,WUHU216HW,2013-10-11 01:03:00,
2013-10-10 18:08:00,47.7,31.8,29.97,North,0,0.0,0.0,54,0.00,,,0.00,WUHU216HW,2013-10-11 01:08:00,
2013-10-10 18:13:00,47.5,32.0,29.97,North,0,0.0,0.0,55,0.00,,,0.00,WUHU216HW,2013-10-11 01:13:00,
2013-10-10 18:18:00,47.3,31.9,29.97,North,0,0.0,0.0,55,0.00,,,0.00,WUHU216HW,2013-10-11 01:18:00,
2013-10-10 18:23:00,47.0,31.6,29.97,North,0,0.0,0.0,55,0.00,,,0.00,WUHU216HW,2013-10-11 01:23:00,
2013-10-10 18:28:00,47.0,32.1,29.97,North,0,0.0,0.0,56,0.00,,,0.00,WUHU216HW,2013-10-11 01:28:00,
2013-10-10 18:33:00,46.6,31.7,29.97,North,0,0.0,0.0,56,0.00,,,0.00,WUHU216HW,2013-10-11 01:33:00,
2013-10-10 18:38:00,46.4,31.5,29.98,North,0,0.0,0.0,56,0.00,,,0.00,WUHU216HW,2013-10-11 01:38:00,
2013-10-10 18:43:00,46.3,31.3,29.98,North,0,0.0,0.0,56,0.00,,,0.00,WUHU216HW,2013-10-11 01:43:00,
2013-10-10 18:48:00,45.9,31.5,29.98,North,0,0.0,0.0,57,0.00,,,0.00,WUHU216HW,2013-10-11 01:48:00,
2013-10-10 18:53:00,45.7,31.3,29.98,North,0,0.0,0.0,57,0.00,,,0.00,WUHU216HW,2013-10-11 01:53:00,
2013-10-10 18:58:00,45.7,31.3,29.98,North,0,0.0,0.0,57,0.00,,,0.00,WUHU216HW,2013-10-11 01:58:00,
2013-10-10 19:03:00,45.4,31.0,29.98,North,0,0.0,0.0,57,0.00,,,0.00,WUHU216HW,2013-10-11 02:03:00,
2013-10-10 19:08:00,45.2,30.8,29.98,North,0,0.0,0.0,57,0.00,,,0.00,WUHU216HW,2013-10-11 02:08:00,
2013-10-10 19:13:00,45.0,30.7,29.99,North,0,0.0,0.0,57,0.00,,,0.00,WUHU216HW,2013-10-11 02:13:00,
2013-10-10 19:18:00,44.6,30.8,29.99,North,0,0.0,0.0,58,0.00,,,0.00,WUHU216HW,2013-10-11 02:18:00,
2013-10-10 19:23:00,44.5,30.6,29.99,North,0,0.0,0.0,58,0.00,,,0.00,WUHU216HW,2013-10-11 02:23:00,
2013-10-10 19:28:00,44.3,30.4,29.99,North,0,0.0,0.0,58,0.00,,,0.00,WUHU216HW,2013-10-11 02:28:00,
2013-10-10 19:33:00,44.3,30.4,29.99,North,0,0.0,0.0,58,0.00,,,0.00,WUHU216HW,2013-10-11 02:33:00,
2013-10-10 19:38:00,44.1,30.7,29.99,North,0,0.0,0.0,59,0.00,,,0.00,WUHU216HW,2013-10-11 02:38:00,
2013-10-10 19:43:00,43.7,30.3,29.99,North,0,0.0,0.0,59,0.00,,,0.00,WUHU216HW,2013-10-11 02:43:00,
2013-10-10 19:48:00,43.6,30.2,29.99,North,0,0.0,0.0,59,0.00,,,0.00,WUHU216HW,2013-10-11 02:48:00,
2013-10-10 19:53:00,43.4,30.4,29.99,North,0,0.0,0.0,60,0.00,,,0.00,WUHU216HW,2013-10-11 02:53:00,
2013-10-10 19:58:00,43.2,30.2,29.99,North,0,0.0,0.0,60,0.00,,,0.00,WUHU216HW,2013-10-11 02:58:00,
2013-10-10 20:03:00,43.0,30.1,30.00,North,0,0.0,0.0,60,0.00,,,0.00,WUHU216HW,2013-10-11 03:03:00,
2013-10-10 20:09:00,42.8,29.9,30.00,North,0,0.0,0.0,60,0.00,,,0.00,WUHU216HW,2013-10-11 03:09:00,
2013-10-10 20:14:00,42.7,30.2,30.00,North,0,0.0,0.0,61,0.00,,,0.00,WUHU216HW,2013-10-11 03:14:00,
2013-10-10 20:19:00,42.5,30.0,30.00,North,0,0.0,0.0,61,0.00,,,0.00,WUHU216HW,2013-10-11 03:19:00,
2013-10-10 20:24:00,42.3,29.8,30.00,North,0,0.0,0.0,61,0.00,,,0.00,WUHU216HW,2013-10-11 03:24:00,
2013-10-10 20:29:00,42.1,29.6,30.00,North,0,0.0,0.0,61,0.00,,,0.00,WUHU216HW,2013-10-11 03:29:00,
2013-10-10 20:34:00,42.1,29.6,30.01,North,0,0.0,0.0,61,0.00,,,0.00,WUHU216HW,2013-10-11 03:34:00,
2013-10-10 20:39:00,41.9,29.4,30.00,North,0,0.0,0.0,61,0.00,,,0.00,WUHU216HW,2013-10-11 03:39:00,
2013-10-10 20:44:00,41.8,29.3,30.01,North,0,0.0,0.0,61,0.00,,,0.00,WUHU216HW,2013-10-11 03:44:00,
2013-10-10 20:49:00,41.4,29.3,30.01,North,0,0.0,0.0,62,0.00,,,0.00,WUHU216HW,2013-10-11 03:49:00,
2013-10-10 20:54:00,41.2,29.2,30.01,North,0,0.0,0.0,62,0.00,,,0.00,WUHU216HW,2013-10-11 03:54:00,
2013-10-10 20:59:00,41.0,29.0,30.01,North,0,0.0,0.0,62,0.00,,,0.00,WUHU216HW,2013-10-11 03:59:00,
2013-10-10 21:01:00,41.0,29.4,30.01,North,0,0.0,0.0,63,0.00,,,0.00,WUHU216HW,2013-10-11 04:01:00,
2013-10-10 21:06:00,40.7,29.1,30.01,North,0,0.0,0.0,63,0.00,,,0.00,WUHU216HW,2013-10-11 04:06:00,
2013-10-10 21:11:00,40.7,29.4,30.01,North,0,0.0,0.0,64,0.00,,,0.00,WUHU216HW,2013-10-11 04:11:00,
2013-10-10 21:16:00,40.3,29.1,30.01,North,0,0.0,0.0,64,0.00,,,0.00,WUHU216HW,2013-10-11 04:16:00,
2013-10-10 21:21:00,40.1,28.9,30.01,North,0,0.0,0.0,64,0.00,,,0.00,WUHU216HW,2013-10-11 04:21:00,
2013-10-10 21:26:00,40.1,28.9,30.01,North,0,0.0,0.0,64,0.00,,,0.00,WUHU216HW,2013-10-11 04:26:00,
2013-10-10 21:31:00,40.0,29.1,30.01,North,0,0.0,0.0,65,0.00,,,0.00,WUHU216HW,2013-10-11 04:31:00,
2013-10-10 21:36:00,40.0,29.1,30.01,North,0,0.0,0.0,65,0.00,,,0.00,WUHU216HW,2013-10-11 04:36:00,
2013-10-10 21:41:00,40.0,29.4,30.01,North,0,0.0,0.0,66,0.00,,,0.00,WUHU216HW,2013-10-11 04:41:00,
2013-10-10 21:46:00,40.0,29.4,30.01,North,0,0.0,0.0,66,0.00,,,0.00,WUHU216HW,2013-10-11 04:46:00,
2013-10-10 21:51:00,40.0,29.8,30.01,North,0,0.0,0.0,67,0.00,,,0.00,WUHU216HW,2013-10-11 04:51:00,
2013-10-10 21:57:00,40.0,29.8,30.01,North,0,0.0,0.0,67,0.00,,,0.00,WUHU216HW,2013-10-11 04:57:00,
2013-10-10 22:02:00,40.1,30.0,30.02,North,0,0.0,0.0,67,0.00,,,0.00,WUHU216HW,2013-10-11 05:02:00,
2013-10-10 22:07:00,40.1,30.0,30.02,North,0,0.0,0.0,67,0.00,,,0.00,WUHU216HW,2013-10-11 05:07:00,
2013-10-10 22:12:00,40.1,30.0,30.02,North,0,0.0,0.0,67,0.00,,,0.00,WUHU216HW,2013-10-11 05:12:00,
2013-10-10 22:17:00,40.1,30.0,30.02,North,0,0.0,0.0,67,0.00,,,0.00,WUHU216HW,2013-10-11 05:17:00,
2013-10-10 22:22:00,40.0,29.8,30.02,North,0,0.0,0.0,67,0.00,,,0.00,WUHU216HW,2013-10-11 05:22:00,
2013-10-10 22:27:00,40.0,29.8,30.02,North,0,0.0,0.0,67,0.00,,,0.00,WUHU216HW,2013-10-11 05:27:00,
2013-10-10 22:32:00,40.0,29.8,30.02,North,0,0.0,0.0,67,0.00,,,0.00,WUHU216HW,2013-10-11 05:32:00,
2013-10-10 22:37:00,40.0,29.8,30.02,North,0,0.0,0.0,67,0.00,,,0.00,WUHU216HW,2013-10-11 05:37:00,
2013-10-10 22:42:00,39.8,29.6,30.03,North,0,0.0,0.0,67,0.00,,,0.00,WUHU216HW,2013-10-11 05:42:00,
2013-10-10 22:47:00,39.8,29.6,30.03,North,0,0.0,0.0,67,0.00,,,0.00,WUHU216HW,2013-10-11 05:47:00,
2013-10-10 22:52:00,39.6,29.4,30.03,North,0,0.0,0.0,67,0.00,,,0.00,WUHU216HW,2013-10-11 05:52:00,
2013-10-10 22:57:00,39.6,29.4,30.03,North,0,0.0,0.0,67,0.00,,,0.00,WUHU216HW,2013-10-11 05:57:00,
2013-10-10 23:02:00,39.4,29.7,30.03,North,0,0.0,0.0,68,0.00,,,0.00,WUHU216HW,2013-10-11 06:02:00,
2013-10-10 23:07:00,39.2,29.1,30.02,North,0,0.0,0.0,67,0.00,,,0.00,WUHU216HW,2013-10-11 06:07:00,
2013-10-10 23:12:00,39.2,29.1,30.02,North,0,0.0,0.0,67,0.00,,,0.00,WUHU216HW,2013-10-11 06:12:00,
2013-10-10 23:17:00,38.9,29.2,30.02,North,0,0.0,0.0,68,0.00,,,0.00,WUHU216HW,2013-10-11 06:17:00,
2013-10-10 23:22:00,38.7,29.0,30.02,North,0,0.0,0.0,68,0.00,,,0.00,WUHU216HW,2013-10-11 06:22:00,
2013-10-10 23:27:00,38.7,29.0,30.02,North,0,0.0,0.0,68,0.00,,,0.00,WUHU216HW,2013-10-11 06:27:00,
2013-10-10 23:32:00,38.7,29.0,30.02,North,0,0.0,0.0,68,0.00,,,0.00,WUHU216HW,2013-10-11 06:32:00,
2013-10-10 23:37:00,38.5,29.3,30.02,North,0,0.0,0.0,69,0.00,,,0.00,WUHU216HW,2013-10-11 06:37:00,
2013-10-10 23:42:00,38.5,29.3,30.02,North,0,0.0,0.0,69,0.00,,,0.00,WUHU216HW,2013-10-11 06:42:00,
2013-10-10 23:47:00,38.5,29.3,30.02,North,0,0.0,0.0,69,0.00,,,0.00,WUHU216HW,2013-10-11 06:47:00,
2013-10-10 23:52:00,38.5,29.6,30.03,North,0,0.0,0.0,70,0.00,,,0.00,WUHU216HW,2013-10-11 06:52:00,
2013-10-10 23:57:00,38.2,29.3,30.03,North,0,0.0,0.0,70,0.00,,,0.00,WUHU216HW,2013-10-11 06:57:00,